Kenosha, WI

1:07 AM CST on January 20, 2017 (GMT -0600)
Kenosha Regional

Weather History for KENW - December, 2013

Change the Weather History Date:

Thursday, December 19, 2013

  Actual Average Record
Temperature  
Mean Temperature 32 °F -  
Max Temperature 37 °F 33 °F 54 °F (1988)
Min Temperature 28 °F 19 °F -20 °F (1983)
Degree Days  
Heating Degree Days 32    
Moisture  
Dew Point 29 °F    
Average Humidity 81    
Maximum Humidity 92    
Minimum Humidity 70    
Precipitation  
Precipitation 0.03 in - - ()
Sea Level Pressure  
Sea Level Pressure 29.89 in    
Wind  
Wind Speed 11 mph (NNE)    
Max Wind Speed 16 mph    
Max Gust Speed -    
Visibility 4 miles    
Events Rain    
Averages and records for this station are not official NWS values.
T = Trace of Precipitation, MM = Missing Value Source: NWS Daily Summary

Daily Weather History Graph

Daily Weather History Graph

Search for Another Location

Airport or City:

Trip Planner

Search our weather history database for the weather conditions in past years. The results will help you decide how hot, cold, wet, or windy it might be!

Date:

Astronomy

Dec. 19, 2013 Rise Set
Actual Time 7:17 AM CST 4:20 PM CST
Civil Twilight 6:45 AM CST 4:52 PM CST
Nautical Twilight 6:09 AM CST 5:28 PM CST
Astronomical Twilight 5:35 AM CST 6:02 PM CST
Moon 6:48 PM CST (12/19) 8:33 AM CST (12/19)
Length of Visible Light 10h 07m
Length of Day
9h 03m
Waning Gibbous, 95% of the Moon is Illuminated
Dec 19
Waning Gibbous
Dec 25
Last Quarter
Jan 1
New
Jan 7
First Quarter
Jan 15
Full

Hourly Weather History & Observations

Time (CST) Temp. Windchill Dew Point Humidity Pressure Visibility Wind Dir Wind Speed Gust Speed Precip Events Conditions
12:53 AM 36.0 °F 26.7 °F 27.0 °F 70% 29.81 in 10.0 mi WSW 15.0 mph - N/A   Clear
1:53 AM 37.0 °F 27.7 °F 28.0 °F 70% 29.82 in 10.0 mi WSW 16.1 mph - N/A   Clear
2:53 AM 35.1 °F 26.9 °F 27.0 °F 72% 29.84 in 10.0 mi WSW 11.5 mph - N/A   Clear
3:53 AM 33.1 °F 26.1 °F 25.0 °F 72% 29.83 in 10.0 mi West 8.1 mph - N/A   Clear
4:53 AM 30.0 °F 23.2 °F 24.1 °F 79% 29.86 in 9.0 mi WSW 6.9 mph - N/A   Clear
5:53 AM 28.9 °F 25.2 °F 24.1 °F 82% 29.87 in 7.0 mi South 3.5 mph - N/A   Clear
6:53 AM 28.0 °F - 24.1 °F 85% 29.89 in 6.0 mi Calm Calm - N/A   Clear
7:53 AM 30.0 °F - 26.1 °F 85% 29.91 in 5.0 mi Calm Calm - N/A   Clear
8:53 AM 33.1 °F 26.1 °F 26.1 °F 75% 29.92 in 5.0 mi North 8.1 mph - N/A   Haze
9:53 AM 33.1 °F 26.9 °F 26.1 °F 75% 29.95 in 5.0 mi NNE 6.9 mph - N/A   Haze
10:53 AM 34.0 °F 27.2 °F 26.1 °F 73% 29.96 in 5.0 mi NNE 8.1 mph - N/A   Haze
11:53 AM 35.1 °F 27.9 °F 28.0 °F 76% 29.95 in 4.0 mi NE 9.2 mph - N/A   Haze
12:42 PM 35.1 °F 26.9 °F 28.0 °F 76% 29.91 in 5.0 mi NE 11.5 mph - N/A   Haze
12:53 PM 36.0 °F 29.0 °F 28.9 °F 76% 29.94 in 5.0 mi NE 9.2 mph - N/A   Haze
1:53 PM 34.0 °F 24.2 °F 28.0 °F 79% 29.94 in 5.0 mi NE 15.0 mph - N/A   Haze
2:53 PM 34.0 °F 25.5 °F 28.0 °F 79% 29.94 in 5.0 mi NE 11.5 mph - N/A   Haze
3:53 PM 35.1 °F 25.9 °F 28.9 °F 78% 29.93 in 5.0 mi NE 13.8 mph - N/A   Haze
4:53 PM 35.1 °F 26.9 °F 28.9 °F 78% 29.93 in 6.0 mi NE 11.5 mph - N/A   Haze
5:53 PM 35.1 °F 26.9 °F 28.9 °F 78% 29.93 in 6.0 mi NE 11.5 mph - N/A   Haze
6:00 PM 34.0 °F 25.0 °F 28.9 °F 82% 29.90 in 6.0 mi NE 12.7 mph - N/A   Haze
6:32 PM 34.0 °F 26.0 °F 28.9 °F 82% 29.90 in 2.0 mi NE 10.4 mph - N/A   Haze
6:41 PM 34.0 °F 26.0 °F 28.9 °F 82% 29.89 in 1.5 mi NE 10.4 mph - N/A   Haze
6:53 PM 34.0 °F 26.0 °F 30.0 °F 85% 29.93 in 1.2 mi NE 10.4 mph - N/A   Overcast
7:28 PM 34.0 °F 26.0 °F 30.9 °F 89% 29.89 in 1.0 mi NNE 10.4 mph - N/A   Overcast
7:53 PM 34.0 °F 25.5 °F 30.9 °F 89% 29.90 in 1.2 mi NE 11.5 mph - N/A   Overcast
8:07 PM 34.0 °F 25.5 °F 32.0 °F 92% 29.87 in 1.2 mi NE 11.5 mph - N/A   Overcast
8:53 PM 34.0 °F 25.0 °F 32.0 °F 92% 29.89 in 1.5 mi NE 12.7 mph - N/A   Overcast
9:34 PM 35.1 °F 26.4 °F 32.0 °F 89% 29.84 in 0.8 mi NE 12.7 mph - 0.01 in Rain Light Rain
9:45 PM 35.1 °F 26.4 °F 32.0 °F 89% 29.84 in 1.0 mi NE 12.7 mph - 0.01 in Rain Light Rain
9:53 PM 35.1 °F 25.9 °F 32.0 °F 89% 29.87 in 1.0 mi NE 13.8 mph - 0.01 in Rain Light Rain
10:53 PM 34.0 °F 25.5 °F 32.0 °F 92% 29.85 in 1.2 mi NNE 11.5 mph - 0.01 in Rain Light Rain
11:53 PM 34.0 °F 25.0 °F 32.0 °F 92% 29.84 in 1.2 mi NNE 12.7 mph - 0.01 in   Overcast